Back to catalog

COSMOS 903 DEB

LostHEO
NORAD 32962·DEBRIS·🇷🇺 Russia

Launched Apr 11, 1977 from Plesetsk Cosmodrome

Loading…

Next Passes (next 24 hours)

TLE

StaleSource: Space-Track

Epoch: Sep 16, 2011, 21:35 UTC

1 32962U 77027H   11259.89968049 -.00000695  00000-0  00000+0 0  9996
2 32962  67.1851 280.7157 6080929  53.2508 357.9332  1.98897443 47937

Track COSMOS 903 DEB in real time with AllMySat

Download on the App Store